Location: Helion Bumpstead
(52.0500°N, 0.4000°E)
Time: 22:38:55
(UTC+00:00)

Cosmos 1725 Rocket - Pass Details

Date: 22 February 2026
Orbit: 962 x 989 km, 82.9° (Epoch: 11 March)

Event Time Altitude Azimuth Distance (km) Brightness Sun altitude
Rises 05:18:41 0° 175° (S) 3,635 7.0 -16.2°
Reaches altitude 10° 05:21:12 10° 172° (S) 2,694 6.4 -15.8°
Maximum altitude 05:27:15 61° 93° (E) 1,094 4.6 -14.9°
Drops below altitude 10° 05:33:21 10° 16° (NNE) 2,725 6.6 -13.9°
Sets 05:35:54 0° 13° (NNE) 3,680 7.2 -13.5°
